Location: Table Mountain
(47.2500°N, 120.5778°W)
Time: 11:41:51
(UTC-07:00)

Tiangong 2 - Pass Details

Date: 11 October 2017
Orbit: 388 x 392 km, 42.8° (Epoch: 18 October)

Event Time Altitude Azimuth Distance (km) Brightness Sun altitude
Exits shadow 06:15:48 12° 231° (SW) 1,299 3.3 -10.9°
Maximum altitude 06:18:21 31° 170° (S) 707 2.5 -10.5°
Drops below altitude 10° 06:21:15 10° 106° (ESE) 1,419 5.3 -10.0°
Sets 06:23:27 0° 95° (E) 2,276 7.3 -9.6°
